Home   Weather   51°34'N, 4°45'E   Past weeks
Flag for Netherlands

Past Weather in 51°34'N, 4°45'E, Netherlands — Yesterday and Last 2 Weeks

Currently: 43 °F. Overcast. (Weather station: Gilze-Rijen, Netherlands). See more current weather

Past Weather in 51°34'N, 4°45'E — Graph

°F

51°34'N, 4°45'E Temperature Yesterday

Maximum temperature yesterday: 45 °F (at 3:36 pm)
Minimum temperature yesterday: 37 °F (at 1:55 am)
Average temperature yesterday: 41 °F

High & Low Weather Summary for the Past Weeks

 TemperatureHumidityPressure
High63 °F (Feb 15, 4:25 pm)100% (Feb 10, 9:04 pm)30.48 "Hg (Feb 10, 9:04 pm)
Low36 °F (Feb 13, 5:55 am)62% (Feb 13, 3:25 pm)28.80 "Hg (Feb 22, 5:13 pm)
Average48 °F89%29.79 "Hg
* Reported Feb 10 7:25 pm — Feb 25 7:25 pm, 51°34'N, 4°45'E. Weather by CustomWeather, © 2024

Note: Actual official high and low records may vary slightly from our data, if they occured in-between our weather recording intervals... More about our weather records

51°34'N, 4°45'E Weather History for the Previous 24 Hours

Scroll right to see more
 ConditionsComfort  
Time TempWeatherWind HumidityBarometerVisibility
7:25 pm
Sun, Feb 25
43 °FOvercast.6 mph87%29.47 "HgN/A
6:55 pm43 °FMostly cloudy.6 mph87%29.47 "HgN/A
6:25 pm45 °FOvercast.7 mph81%29.47 "HgN/A
5:55 pm45 °FMostly cloudy.7 mph81%29.47 "HgN/A
5:25 pm46 °FMostly cloudy.6 mph82%29.47 "HgN/A
4:55 pm48 °FMore clouds than sun.5 mph71%29.47 "HgN/A
4:25 pm48 °FOvercast.7 mph71%29.47 "HgN/A
3:25 pm50 °FPartly sunny.7 mph71%29.50 "HgN/A
2:55 pm48 °FCool.8 mph71%29.50 "HgN/A
1:55 pm48 °FMostly cloudy.10 mph76%29.50 "HgN/A
1:44 pm48 °FBroken clouds.8 mph82%29.53 "HgN/A
1:25 pm46 °FMostly cloudy.8 mph87%29.53 "HgN/A
1:08 pm45 °FBroken clouds.8 mph87%29.53 "HgN/A
12:55 pm45 °FPartly sunny.7 mph87%29.53 "HgN/A
12:40 pm45 °FPartly sunny.9 mph87%29.53 "HgN/A
12:16 pm46 °FBroken clouds.10 mph82%29.53 "HgN/A
12:07 pm46 °FBroken clouds.10 mph82%29.53 "HgN/A
11:55 am46 °FMostly cloudy.12 mph82%29.53 "HgN/A
11:25 am45 °FDrizzle. Broken clouds.12 mph87%29.53 "HgN/A
11:20 am46 °FDrizzle. Broken clouds.8 mph87%29.53 "HgN/A
10:55 am45 °FBroken clouds.7 mph93%29.53 "HgN/A
10:29 am43 °FBroken clouds.7 mph93%29.53 "HgN/A
10:12 am45 °FLight rain. Broken clouds.7 mph93%29.53 "HgN/A
10:08 am45 °FBroken clouds.7 mph93%29.53 "HgN/A
9:44 am43 °FMostly cloudy.6 mph93%29.53 "HgN/A
9:34 am43 °FMore clouds than sun.7 mph93%29.53 "HgN/A
9:20 am43 °FDrizzle. Broken clouds.8 mph93%29.53 "Hg6 mi
8:55 am43 °FOvercast.8 mph93%29.53 "HgN/A
7:55 am41 °FLight rain. Broken clouds.8 mph100%29.53 "HgN/A
7:25 am41 °FDrizzle. Overcast.8 mph100%29.53 "HgN/A
6:56 am41 °FPartly cloudy.8 mph100%29.50 "HgN/A
6:55 am41 °FPartly cloudy.7 mph100%29.50 "HgN/A
6:29 am41 °FPartly cloudy.8 mph100%29.50 "HgN/A
6:16 am41 °FPartly cloudy.8 mph100%29.50 "HgN/A
6:03 am41 °FPartly cloudy.8 mph100%29.50 "HgN/A
5:35 am41 °FPartly cloudy.9 mph93%29.50 "HgN/A
4:55 am41 °FMostly cloudy.8 mph93%29.50 "HgN/A
4:44 am41 °FLow clouds.8 mph93%29.50 "HgN/A
4:34 am41 °FFog.8 mph93%29.50 "Hg5 mi
4:11 am41 °FLight rain. Overcast.10 mph93%29.50 "Hg4 mi
3:34 am41 °FDrizzle. Overcast.14 mph93%29.50 "HgN/A
2:55 am41 °FLight rain. Passing clouds.9 mph87%29.50 "HgN/A
2:31 am43 °FOvercast.10 mph81%29.50 "HgN/A
2:14 am43 °FOvercast.10 mph81%29.50 "HgN/A
1:55 am43 °FOvercast.14 mph81%29.50 "HgN/A
12:38 am43 °FMostly cloudy.13 mph81%29.50 "HgN/A
12:34 am43 °FOvercast.12 mph81%29.50 "HgN/A
12:11 am43 °FMostly cloudy.10 mph81%29.50 "HgN/A
11:55 pm
Sat, Feb 24
43 °FOvercast.10 mph81%29.50 "HgN/A
11:34 pm43 °FPartly cloudy.13 mph81%29.50 "HgN/A
10:55 pm43 °FLight rain. Partly cloudy.13 mph81%29.53 "HgN/A
10:25 pm43 °FMostly cloudy.13 mph76%29.53 "HgN/A
9:55 pm43 °FPartly cloudy.12 mph76%29.53 "HgN/A
9:25 pm43 °FOvercast.10 mph76%29.53 "HgN/A
8:55 pm43 °FMostly cloudy.10 mph76%29.53 "HgN/A
8:25 pm43 °FMostly cloudy.9 mph76%29.53 "HgN/A
Weather by CustomWeather, © 2024

See weather overview